Location: Golce
(50.8629°N, 18.8621°E)
Time: 06:07:39
(UTC+00:00)

Daily predictions for brighter satellites

Satellite Brightness Start Highest point End
(mag) Time Altitude Azimuth Time Altitude Azimuth Time Altitude Azimuth
Feng Yun 1-1 Rocket 4.3 18:20:06 10° SSE 18:25:30 65° ENE 18:30:52 10° N
Cosmos 1869 Rocket 4.4 18:22:56 10° SSW 18:27:17 56° WNW 18:31:41 10° N
Cosmos 2369 Rocket 2.8 18:22:11 10° NNW 18:27:30 42° NE 18:32:47 10° ESE
TSX-5 4.0 18:23:05 10° SSW 18:27:46 89° SE 18:31:40 10° NNE
Meteor 1-31 Rocket 2.5 18:24:22 10° SSE 18:27:53 87° ENE 18:31:26 10° NNW
Cosmos 1602 4.4 18:26:45 10° NNE 18:28:12 15° ENE 18:29:38 10° ESE
Cosmos 1812 1.6 18:29:49 10° SSE 18:31:18 26° E 18:32:46 10° NNE
Aureole 3 4.2 18:26:28 10° N 18:31:33 81° E 18:37:34 10° SSE
ADEOS 3.8 18:27:23 10° SE 18:32:25 53° ENE 18:37:30 10° N
USA 234 3.9 18:27:47 10° ENE 18:33:32 32° SE 18:39:16 10° SSW
SL-08 R/B 4.2 18:30:49 10° NNE 18:35:09 30° E 18:39:27 10° SSE
MOS 1 4.3 18:30:04 10° SSE 18:35:39 70° ENE 18:41:19 10° NNW
CBERS 1 LM4 rocket 4.4 18:31:31 10° SSE 18:36:10 64° ENE 18:40:57 10° N
Meteor 1-11 4.3 18:33:23 10° NNW 18:38:56 84° W 18:44:25 10° S
Cosmos 2221 Rocket 4.2 18:36:46 10° N 18:40:56 39° ENE 18:45:05 10° SE
RESURS DK-1 2.3 18:37:24 10° SSW 18:41:21 86° WNW 18:45:20 10° NNE
Lacrosse 5 rocket 2.5 18:39:20 10° WNW 18:42:06 26° N 18:44:51 10° ENE
Cosmos 2278 Rocket 4.0 18:40:01 10° NW 18:44:54 30° WSW 18:49:45 10° SSW
USA 186 2.9 18:43:56 12° ESE 18:45:09 17° ENE 18:46:50 10° NNE
USA 32 4.1 18:42:43 10° S 18:47:57 89° W 18:53:13 10° N
CZ-4B DEB 4.3 18:42:55 10° SSE 18:48:25 83° WSW 18:53:58 10° NNW
CZ-4B R/B 3.3 18:43:21 10° SSE 18:48:56 75° ENE 18:54:36 10° NNW
Cosmos 405 Rocket 3.9 18:48:51 10° NNE 18:50:53 17° ENE 18:52:20 13° E
SL-24 R/B 4.3 18:48:16 10° NNE 18:53:03 59° E 18:57:18 10° S
SL-8 R/B 4.1 18:48:50 10° SW 18:53:14 40° SSE 18:57:40 10° E
CZ-4B R/B 4.2 18:52:52 12° ESE 18:54:51 18° ENE 18:57:13 10° NNE
NOSS 2-1 (D) 4.4 18:52:21 10° WNW 18:55:30 35° SW 18:59:28 10° SSE
Cosmos 1125 Rocket 3.7 18:51:38 10° SSW 18:56:52 79° WNW 19:02:11 10° NNE
ERS-1 Rocket 3.1 18:55:38 10° SSE 19:00:38 80° WSW 19:05:41 10° NNW
Cosmos 2292 Rocket 3.2 18:58:22 10° N 19:02:48 78° ENE 19:06:14 10° SSE
Cosmos 1674 Rocket 3.6 18:58:40 10° NNW 19:03:01 81° W 19:07:22 10° S
NOSS 2-1 (E) 4.3 19:00:30 10° WNW 19:03:41 38° SW 19:07:41 10° SSE
BREEZE-M DEB (TANK) 2.1 19:02:19 10° W 19:04:31 57° S 19:06:41 17° ESE
Cosmos 2298 Rocket 4.3 19:03:55 10° S 19:08:58 47° ESE 19:14:04 10° NNE
Okean-O 2.7 19:07:12 14° SSE 19:10:52 59° ENE 19:15:11 10° N
Cosmos 44 3.4 19:07:01 10° SSW 19:12:01 63° SE 19:17:18 10° NE
Cosmos 1727 Rocket 4.3 19:06:20 10° NNW 19:12:40 74° W 19:18:55 10° S
CZ-2C R/B 4.0 19:12:52 14° E 19:13:38 15° ENE 19:15:26 10° NNE
MetOp-B 4.4 19:08:43 10° S 19:14:04 71° WSW 19:19:27 10° NNW
Cosmos 1908 Rocket 3.6 19:09:52 10° S 19:14:06 58° E 19:18:21 10° NNE
IRS-1A Rocket 4.3 19:09:10 10° SSE 19:14:48 90° ENE 19:20:37 10° NNW
SL-08 R/B 4.5 19:09:30 10° S 19:15:32 65° E 19:21:36 10° NNE
Cosmos 1934 Rocket 4.1 19:11:47 10° SSE 19:17:51 55° E 19:23:51 10° NNE
SL-16 R/B 2.2 19:12:27 10° SSW 19:18:02 65° ESE 19:23:41 10° NE
CZ-4B R/B 4.1 19:15:34 18° ESE 19:18:37 37° ENE 19:22:58 10° N
Okean O Rocket 1.5 19:15:51 15° SSE 19:19:25 74° ENE 19:23:45 10° N
Ariane Rocket 3.8 19:17:09 17° ESE 19:20:19 35° ENE 19:24:52 10° N
Geosat 4.2 19:16:05 10° NE 19:20:55 47° ESE 19:25:43 10° S
Cosmos 1782 Rocket 4.0 19:21:41 18° SSE 19:24:21 39° E 19:28:22 10° NNE
CZ-4 R/B 3.3 19:21:42 10° SSW 19:24:49 25° W 19:27:55 10° NW
Cosmos 1269 Rocket 4.4 19:21:29 10° NNW 19:26:39 52° ENE 19:29:59 21° SE
Spot 2 Rocket 3.4 19:23:16 14° SSE 19:27:38 89° ENE 19:32:40 10° NNW
ATLAS 5 CENTAUR R/B 3.0 19:25:23 10° NNW 19:28:39 26° NNE 19:31:56 13° E
MOS 1-B 4.3 19:23:34 13° SSE 19:28:43 88° ENE 19:34:33 10° NNW
NOSS 3-1 (C) 4.0 19:22:20 10° NW 19:29:12 86° SW 19:35:43 19° SE
Cosmos 1140 Rocket 3.7 19:24:36 10° NNW 19:29:42 57° ENE 19:32:51 22° SE
Helios 1A Rocket 4.2 19:28:51 10° N 19:31:46 32° WNW 19:34:38 10° SW
Cosmos 1025 Rocket 3.9 19:27:42 10° NNW 19:31:49 48° W 19:35:56 10° SSW
USA 245 4.2 19:28:49 21° SE 19:32:05 59° ENE 19:37:37 10° N
NOSS 3-4 (A) 4.5 19:26:54 10° WSW 19:32:06 44° NNW 19:37:58 10° NE
NOSS 3-4 (C) 4.5 19:27:25 10° WSW 19:32:38 45° NNW 19:38:32 10° NE
Dummy Sat-01 4.5 19:29:31 14° S 19:32:39 86° E 19:36:19 10° N
Cosmos 546 4.4 19:29:45 10° W 19:33:25 89° S 19:35:45 21° E
Terra 2.9 19:33:09 10° S 19:37:36 42° W 19:42:04 10° NNW
BREEZE-M DEB (TANK) 3.1 19:37:38 10° W 19:40:31 47° SSW 19:43:54 23° SE
Cosmos 2123 Rocket 4.1 19:35:04 10° NNW 19:41:22 80° W 19:47:09 13° S
Gblst 52 Del rocket 4.5 19:39:00 10° WSW 19:45:05 82° SSE 19:52:09 10° ENE
Cosmos 407 Rocket 4.1 19:41:29 10° NNW 19:46:22 41° ENE 19:48:52 25° ESE
Cosmos 2237 Rocket 4.1 19:41:20 10° WSW 19:46:26 33° NW 19:51:35 10° NNE
Cosmos 1862 3.5 19:44:28 10° N 19:47:56 43° ENE 19:48:48 36° ESE
Cosmos 1174 3.0 19:47:37 10° NW 19:50:52 83° NE 19:51:31 52° SE
Cosmos 2150 Rocket 4.1 19:45:54 10° SSW 19:51:03 79° WNW 19:56:20 10° NNE
Cosmos 2058 3.2 19:47:18 10° N 19:51:06 44° ENE 19:52:11 35° ESE
Cosmos 1300 Rocket 3.4 19:48:13 16° S 19:51:37 87° ESE 19:55:57 10° N
Cosmos 371 Rocket 4.2 19:48:13 10° NNW 19:52:44 37° NE 19:54:49 25° ESE
BREEZE-M DEB (TANK) 2.8 19:51:50 10° W 19:54:32 72° S 19:58:00 21° ESE
COSMOS 2455 3.1 19:48:49 10° NNW 19:54:48 61° NE 19:58:10 26° ESE
SL-4 R/B 3.8 19:56:39 10° SSW 19:57:34 16° SSW 19:57:34 16° SSW
BREEZE-M DEB (TANK) 4.3 19:55:17 10° SW 20:00:10 61° SE 20:20:29 10° ENE
SJ 16-02 2.5 19:58:59 10° N 20:02:46 29° ENE 20:04:02 25° E
ASTEX 1 4.2 19:59:48 11° SSW 20:04:20 48° W 20:09:08 10° NNW
Cosmos 1535 Rocket 4.4 20:00:37 19° S 20:05:11 75° E 20:11:22 10° NNE
Cosmos 1605 Rocket 3.9 20:02:58 21° S 20:07:12 72° E 20:13:21 10° NNE
Cosmos 2297 4.3 20:01:41 10° NW 20:07:14 50° WSW 20:10:44 22° S
Gbstr 26 Del rocket 3.8 20:02:41 10° SSW 20:06:31 33° S 20:06:31 33° S
Cosmos 1869 3.9 20:06:01 15° SSW 20:08:47 48° WNW 20:12:15 10° N
Cosmos 1315 Rocket 2.5 20:08:55 37° S 20:10:18 88° ESE 20:14:05 10° NNE
SPOT 3 Rocket 3.6 20:08:16 28° S 20:11:06 78° WSW 20:16:19 10° NNW
Cosmos 2369 Rocket 3.1 20:06:18 10° NW 20:11:31 41° WSW 20:14:59 19° SSW
USA 186 3.6 20:14:08 14° WSW 20:14:35 15° W 20:16:04 10° NW
USA 234 3.2 20:10:33 10° ENE 20:17:09 84° SSE 20:23:43 10° WSW
Lacrosse 5 rocket 1.2 20:16:04 10° NW 20:19:11 51° NNE 20:19:32 48° NE
SeaSat 1 3.9 20:17:06 18° E 20:19:34 27° NE 20:23:40 10° NNW
Cosmos 1697 Rocket 4.5 20:15:41 10° NNW 20:20:03 22° NE 20:23:43 13° E
Cosmos 405 Rocket 3.7 20:21:18 10° NW 20:23:51 26° W 20:24:26 25° WSW
Cosmos 1603 4.1 20:26:12 39° SE 20:27:15 43° ESE 20:32:37 10° NE
CZ-4B R/B 3.5 20:27:34 32° SW 20:28:23 38° W 20:31:35 10° NNW
Cosmos 921 Rocket 3.1 20:24:34 10° NNW 20:28:58 68° WSW 20:30:06 46° S
NOSS 3-1 (A) 4.0 20:22:01 10° NW 20:28:58 82° SW 20:33:19 32° SE
Cosmos 1943 3.1 20:23:23 10° SSW 20:29:03 86° ESE 20:34:46 10° NNE
Meteor 2-3 Rocket 4.3 20:24:45 10° N 20:30:07 44° ENE 20:31:47 35° ESE
IRS-1C Rocket 4.4 20:31:47 32° S 20:34:10 63° WSW 20:39:26 10° NNW
Cosmos 1975 Rocket 3.8 20:30:01 10° NNW 20:34:17 49° W 20:35:59 31° SSW
Helios 1B rocket 3.3 20:35:11 29° ENE 20:35:11 29° ENE 20:38:04 10° N
SL-8 R/B 3.5 20:30:31 10° WSW 20:35:13 66° S 20:36:05 53° ESE
Cosmos 1356 Rocket 3.6 20:36:35 40° SW 20:37:52 66° WNW 20:41:52 10° N
Cosmos 2151 Rocket 4.0 20:39:51 43° E 20:39:51 43° E 20:43:56 10° NNE
Okean 1 Rocket 4.2 20:40:47 29° ENE 20:40:47 29° ENE 20:44:08 10° NNE
Cosmos 1980 Rocket 4.4 20:36:29 10° N 20:40:21 18° NNE 20:44:11 10° ENE
Cosmos 2100 Rocket 4.2 20:42:04 41° SE 20:43:46 52° E 20:49:46 10° NNE
CZ-2C R/B 3.6 20:44:39 30° W 20:44:39 30° W 20:46:57 10° NNW
Cosmos 1190 Rocket 4.3 20:40:44 10° NNW 20:45:58 57° ENE 20:47:18 44° ESE
Cosmos 304 Rocket 3.7 20:41:30 10° NNW 20:46:16 78° WSW 20:47:13 57° S
Okean 2 Rocket 3.8 20:47:17 39° E 20:47:17 39° E 20:51:11 10° NNE
Helios 1A 3.7 20:43:20 10° NNE 20:46:20 36° ENE 20:46:20 36° ENE
Okean O Rocket 4.1 20:53:44 10° WSW 20:56:07 14° W 20:58:30 10° NW
Cosmos 2360 4.3 20:52:50 10° NNW 20:58:32 67° ENE 21:00:06 47° ESE
Ariane Rocket 4.0 20:57:13 28° SW 20:59:08 39° W 21:03:53 10° NNW
Cosmos 1656 3.6 20:56:14 10° NNW 21:01:43 77° ENE 21:02:57 54° SE
ATLAS 3B R/B 3.9 20:54:36 10° NW 21:02:04 43° NNE 21:08:29 13° E
SL-16 R/B 4.1 20:57:38 10° WSW 21:02:35 30° NW 21:07:35 10° NNE
ATLAS 5 CENTAUR R/B 1.5 21:06:56 10° NW 21:11:00 73° SW 21:11:02 73° SW
Cosmos 332 Rocket 4.2 21:06:23 10° NNW 21:11:05 49° ENE 21:11:40 46° E
BREEZE-M DEB (TANK) 4.3 20:55:56 10° SW 21:11:23 54° SSE 21:16:37 10° E
Cosmos 1420 Rocket 3.9 21:14:16 65° SSE 21:14:45 70° ESE 21:20:02 10° NNE
Cosmos 1954 Rocket 3.8 21:11:09 10° NNW 21:16:25 81° ENE 21:17:07 67° SE
Cosmos 1833 Rocket 3.9 21:19:39 26° E 21:19:39 26° E 21:23:24 10° NE
Cosmos 676 Rocket 4.0 21:14:44 10° NNW 21:20:01 67° ENE 21:20:45 59° ESE
Cosmos 1818 3.4 21:17:05 10° NW 21:22:35 78° SW 21:23:15 67° S
Cosmos 1725 Rocket 4.0 21:24:13 54° SSE 21:25:31 67° E 21:31:47 10° NNE
Sich 1 Rocket 3.6 21:26:27 69° NE 21:26:27 69° NE 21:30:27 10° NNE
ALOS 2 3.4 21:26:08 40° ENE 21:26:08 40° ENE 21:30:15 10° N
Cosmos 407 Rocket 4.5 21:23:35 10° NW 21:28:10 34° WSW 21:28:58 32° WSW
USA 229 DEB 4.3 21:21:21 10° NW 21:28:31 60° NE 21:33:11 26° ESE
USA 229 4.3 21:21:24 10° NW 21:28:34 59° NE 21:33:18 26° ESE
Cosmos 1459 Rocket 4.0 21:26:51 49° SSW 21:28:45 86° W 21:35:05 10° N
Spot 4 4.1 21:29:18 53° E 21:29:31 53° ENE 21:34:09 10° N
ARIANE 5 R/B 2.9 21:32:43 55° ENE 21:32:43 55° ENE 21:36:49 10° N
Cosmos 371 Rocket 4.2 21:28:31 10° NW 21:32:55 35° WSW 21:33:16 35° WSW
Cosmos 2233 Rocket 4.1 21:33:59 51° SE 21:34:55 55° E 21:41:00 10° NNE
ATLAS 2AS CENTAUR R/B 3.1 21:38:07 41° ESE 21:38:07 41° ESE 21:44:17 10° NE
Meteor 2-1 Rocket 4.2 21:37:34 57° SSW 21:38:50 82° WNW 21:44:37 10° N
COSMOS 2455 3.8 21:35:10 10° NW 21:40:25 32° WSW 21:41:17 31° SW
ARIANE 6 FM1 Upper Stage 3.2 21:36:31 10° NW 21:40:04 51° NNE 21:40:04 51° NNE
Cosmos 2056 Rocket 3.5 21:40:33 66° ESE 21:40:36 66° ESE 21:45:59 10° NNE
SJ 16-02 2.4 21:36:59 10° NW 21:40:32 35° W 21:40:32 35° W
Cosmos 2228 4.2 21:42:18 32° ENE 21:42:18 32° ENE 21:45:07 10° NNE
Cosmos 1802 Rocket 3.9 21:40:52 56° S 21:42:21 89° W 21:48:38 10° N
Cosmos 2251 Rocket 3.9 21:37:50 10° NNW 21:43:02 52° WSW 21:43:27 51° SW
Cosmos 1624 Rocket 3.9 21:48:22 72° E 21:48:22 72° E 21:53:26 10° NNE
CZ-2C R/B 3.9 21:47:40 27° E 21:49:05 31° ENE 21:53:48 10° N
Cosmos 292 Rocket 3.9 21:46:40 10° NNW 21:51:27 63° ENE 21:51:29 63° ENE
SeaSat 1 2.4 21:56:42 69° WSW 21:56:42 69° WSW 22:01:30 10° NW
Cosmos 2016 Rocket 4.0 21:55:13 58° SSW 21:56:37 84° WNW 22:02:59 10° N
Cosmos 1626 Rocket 4.4 21:55:23 10° N 21:58:59 41° NE 21:58:59 41° NE
ACS3 Solar Sail 4.0 21:58:18 10° ENE 21:59:34 11° ENE 22:00:51 10° E
USA 234 3.8 21:53:37 10° ENE 21:59:59 57° N 22:06:23 10° W
Cosmos 1697 Rocket 2.5 21:59:12 10° NNW 22:04:53 83° ENE 22:05:25 73° SE
Helios 1B rocket 4.2 22:09:10 20° WNW 22:09:10 20° WNW 22:10:56 10° NW
Cosmos 1892 Rocket 4.2 22:05:15 10° NNW 22:09:00 50° WNW 22:09:00 50° WNW
Cosmos 1782 4.2 22:11:12 32° NNE 22:11:12 32° NNE 22:13:12 10° NNE
Cosmos 2151 3.9 22:13:17 10° N 22:16:37 41° NE 22:16:37 41° NE
Okean 1 Rocket 4.3 22:17:47 32° WNW 22:18:02 32° WNW 22:21:57 10° N
CZ-4C R/B 4.2 22:20:44 12° E 22:20:44 12° E 22:21:23 10° ENE
Cosmos 1371 Rocket 4.2 22:23:19 59° W 22:23:55 64° WNW 22:29:13 10° NNE
Meteor 1-20 Rocket 4.3 22:19:11 10° N 22:24:36 62° ENE 22:25:03 60° E
Cosmos 1980 Rocket 2.5 22:19:53 10° NNW 22:25:33 60° NE 22:26:39 51° E
Meteor 1-22 4.5 22:21:43 10° N 22:27:06 80° ENE 22:27:16 79° ESE
Cosmos 968 Rocket 3.7 22:22:23 10° NNW 22:27:16 60° W 22:27:16 60° W
MetOp-A 3.9 22:27:45 85° ENE 22:27:45 85° ENE 22:32:54 10° NNW
Cosmos 1455 Rocket 3.8 22:28:48 46° WNW 22:28:48 46° WNW 22:32:49 10° N
ARGOS Delta rocket 4.0 22:24:13 10° NNE 22:28:13 64° NE 22:28:13 64° NE
CZ-2C R/B 4.2 22:25:22 10° N 22:29:25 52° WNW 22:29:25 52° WNW
Tsikada Rocket 4.3 22:25:09 10° NNW 22:31:14 54° W 22:32:10 49° WSW
Cosmos 1741 Rocket 3.9 22:30:57 10° NNW 22:36:11 80° W 22:36:11 80° W
Cosmos 2061 Rocket 4.0 22:35:46 57° SW 22:36:51 68° WNW 22:43:04 10° N
Cosmos 1544 Rocket 4.1 22:38:21 54° NE 22:38:21 54° NE 22:41:56 10° NNE
Cosmos 1452 Rocket 3.7 22:41:37 58° E 22:41:37 58° E 22:46:24 10° NNE
Cosmos 1758 Rocket 4.1 22:41:07 10° NNW 22:44:33 54° NNW 22:44:33 54° NNW
Cosmos 1891 Rocket 4.4 22:52:35 67° SSW 22:53:30 86° W 22:59:45 10° N
ATLAS 3B R/B 2.8 22:45:43 10° NW 22:53:35 81° SW 22:55:41 52° SSE
Cosmos 1867 3.5 22:54:03 71° ESE 22:54:03 71° ESE 22:59:16 10° NE
Cosmos 2333 Rocket 3.9 22:51:52 10° NNW 22:56:45 29° NE 23:01:38 10° ESE
Aureole 3 Rocket 4.0 22:58:44 52° W 22:59:20 55° WNW 23:05:54 10° N
Cosmos 1933 4.4 23:02:05 40° NNE 23:02:05 40° NNE 23:04:38 10° NNE
Cosmos 1833 Rocket 3.0 23:01:16 51° W 23:02:17 59° NW 23:07:52 10° NNE
ALOS 2 4.2 23:03:31 25° WNW 23:03:31 25° WNW 23:06:20 10° NW
Cosmos 2082 Rocket 3.0 23:02:51 38° ESE 23:02:51 38° ESE 23:08:04 10° NE
BREEZE-M R/B 4.1 22:59:03 10° W 23:06:26 89° S 23:12:22 10° E
Cosmos 2322 Rocket 4.2 23:03:22 10° NNW 23:07:57 24° NE 23:12:30 10° E
CZ-2C R/B 3.0 23:03:38 10° NNE 23:08:54 81° WNW 23:09:16 76° WSW
Cosmos 1825 Rocket 4.0 23:05:57 10° N 23:09:41 55° NE 23:09:41 55° NE
Cosmos 1437 Rocket 4.2 23:16:08 31° NNE 23:16:08 31° NNE 23:18:07 10° NNE
Cosmos 1602 Rocket 4.2 23:10:43 10° NNW 23:14:04 49° NW 23:14:04 49° NW
USA 229 DEB 4.2 23:12:21 10° NW 23:19:33 51° WSW 23:20:33 49° SW
USA 229 4.2 23:12:24 10° NW 23:19:37 52° WSW 23:20:40 49° SSW
Cosmos 1302 Rocket 3.8 23:22:30 80° ESE 23:22:30 80° ESE 23:27:42 10° NNE
SL-16 R/B 3.2 23:18:44 10° NNW 23:24:08 43° NE 23:27:50 19° ESE
Cosmos 1428 Rocket 4.4 23:18:54 10° NNW 23:25:14 80° W 23:26:15 64° SSW
Cosmos 1992 Rocket 4.4 23:25:21 51° ESE 23:25:23 51° ESE 23:30:26 10° NNE
Landsat 5 3.8 23:21:16 10° NNE 23:24:55 64° N 23:24:55 64° N
ATLAS 2AS CENTAUR R/B 3.0 23:25:29 33° WSW 23:28:40 62° NW 23:35:26 10° NE
CZ-2C R/B 3.0 23:29:08 51° W 23:29:08 51° W 23:34:24 10° NNW
Cosmos 44 Rocket 4.3 23:29:36 37° ESE 23:29:36 37° ESE 23:33:53 10° NE
Okean 1 4.5 23:33:17 35° NE 23:33:17 35° NE 23:35:34 10° NNE
Cosmos 2098 Rocket 3.6 23:36:56 64° WSW 23:37:32 69° WNW 23:43:07 10° N
Nadezhda 4 Rocket 4.1 23:36:21 10° NNW 23:42:20 54° W 23:43:04 51° WSW
USA 234 3.9 23:36:12 10° E 23:42:32 55° N 23:48:54 10° WNW
Cosmos 2237 4.1 23:37:03 10° NNW 23:42:48 85° WSW 23:43:42 65° SSE
ACS3 Solar Sail 2.0 23:37:16 10° NNE 23:43:15 58° E 23:44:42 47° SSE
IDEFIX/ARIANE 42P 3.8 23:40:35 10° NNE 23:45:07 30° E 23:46:20 27° ESE
Cosmos 1697 Rocket 4.4 23:44:17 10° WNW 23:47:06 18° W 23:47:06 18° W
Cosmos 1536 3.7 23:46:57 10° N 23:50:04 41° NE 23:50:04 41° NE
Cosmos 1606 Rocket 3.8 23:55:25 59° WNW 23:55:25 59° WNW 23:59:31 10° N
